Danbury, CT

3:27 AM EST on February 26, 2017 (GMT -0500)
Danbury Municipal

Weather History for KDXR - May, 2013

Change the Weather History Date:

Saturday, May 18, 2013

  Actual Average Record
Temperature  
Mean Temperature 55 °F -  
Max Temperature 69 °F 70 °F 90 °F (1962)
Min Temperature 42 °F 48 °F 32 °F (1983)
Degree Days  
Heating Degree Days 10    
Growing Degree Days 5 (Base 50)    
Moisture  
Dew Point 44 °F    
Average Humidity 67    
Maximum Humidity 92    
Minimum Humidity 40    
Precipitation  
Precipitation 0.00 in - - ()
Sea Level Pressure  
Sea Level Pressure 30.29 in    
Wind  
Wind Speed 3 mph (South)    
Max Wind Speed 13 mph    
Max Gust Speed 17 mph    
Visibility 10 miles    
Events      
Averages and records for this station are not official NWS values.
T = Trace of Precipitation, MM = Missing Value Source: NWS Daily Summary

Daily Weather History Graph

Daily Weather History Graph

Search for Another Location

Airport or City:

Trip Planner

Search our weather history database for the weather conditions in past years. The results will help you decide how hot, cold, wet, or windy it might be!

Date:

Astronomy

May. 18, 2013 Rise Set
Actual Time 5:32 AM EDT 8:09 PM EDT
Civil Twilight 5:00 AM EDT 8:41 PM EDT
Nautical Twilight 4:20 AM EDT 9:21 PM EDT
Astronomical Twilight 3:35 AM EDT 10:06 PM EDT
Moon 1:05 PM EDT (5/18) 1:28 AM EDT (5/18)
Length of Visible Light 15h 40m
Length of Day
14h 36m
First Quarter, 55% of the Moon is Illuminated
May 18
First Quarter
May 25
Full
May 31
Last Quarter
Jun 8
New
Jun 16
First Quarter

Hourly Weather History & Observations

Time (EDT) Temp. Windchill Dew Point Humidity Pressure Visibility Wind Dir Wind Speed Gust Speed Precip Events Conditions
12:53 AM 46.0 °F - 42.1 °F 86% 30.23 in 10.0 mi Calm Calm - N/A   Clear
1:53 AM 45.0 °F - 41.0 °F 86% 30.23 in 10.0 mi Calm Calm - N/A   Clear
2:53 AM 42.1 °F - 39.0 °F 89% 30.24 in 10.0 mi Calm Calm - N/A   Clear
3:53 AM 42.1 °F 40.2 °F 39.0 °F 89% 30.25 in 10.0 mi WSW 3.5 mph - N/A   Clear
4:53 AM 42.1 °F - 39.9 °F 92% 30.26 in 10.0 mi Calm Calm - N/A   Clear
5:53 AM 42.1 °F - 39.9 °F 92% 30.28 in 10.0 mi Calm Calm - N/A   Clear
6:53 AM 48.9 °F - 43.0 °F 80% 30.30 in 10.0 mi Calm Calm - N/A   Clear
7:53 AM 54.0 °F - 43.0 °F 66% 30.30 in 10.0 mi NE 3.5 mph - N/A   Clear
8:53 AM 57.0 °F - 43.0 °F 59% 30.32 in 10.0 mi Calm Calm - N/A   Clear
9:53 AM 62.1 °F - 45.0 °F 53% 30.32 in 10.0 mi ESE 4.6 mph - N/A   Clear
10:53 AM 66.0 °F - 48.0 °F 52% 30.31 in 10.0 mi Variable 4.6 mph - N/A   Clear
11:53 AM 68.0 °F - 44.1 °F 42% 30.30 in 10.0 mi SSW 6.9 mph - N/A   Clear
12:53 PM 68.0 °F - 44.1 °F 42% 30.29 in 10.0 mi SSE 10.4 mph - N/A   Partly Cloudy
1:53 PM 68.0 °F - 43.0 °F 40% 30.28 in 10.0 mi South 8.1 mph - N/A   Mostly Cloudy
2:53 PM 64.9 °F - 43.0 °F 45% 30.29 in 10.0 mi SSW 11.5 mph - N/A   Overcast
3:53 PM 63.0 °F - 43.0 °F 48% 30.29 in 10.0 mi SW 12.7 mph 17.3 mph N/A   Overcast
4:53 PM 62.1 °F - 45.0 °F 53% 30.31 in 10.0 mi SW 10.4 mph - N/A   Clear
5:53 PM 59.0 °F - 45.0 °F 60% 30.32 in 10.0 mi SW 11.5 mph - N/A   Clear
6:53 PM 57.9 °F - 48.0 °F 70% 30.32 in 10.0 mi SSW 6.9 mph - N/A   Mostly Cloudy
7:53 PM 57.9 °F - 45.0 °F 62% 30.32 in 10.0 mi South 3.5 mph - N/A   Overcast
8:53 PM 57.0 °F - 45.0 °F 64% 30.31 in 10.0 mi South 3.5 mph - N/A   Overcast
9:53 PM 55.9 °F - 46.9 °F 72% 30.32 in 10.0 mi South 3.5 mph - N/A   Overcast
10:53 PM 55.9 °F - 48.9 °F 77% 30.32 in 10.0 mi SE 4.6 mph - N/A   Overcast
11:53 PM 55.0 °F - 51.1 °F 86% 30.31 in 10.0 mi Calm Calm - N/A   Overcast